Probability
0 0 0 0 0 0 0 0 0 0 0 1 4 7 13 19 22 21 20 23 24 19 17 21 25 27 29 30 30 29 28 26 25 21 16 13 12 9 8 8 6 5 6 6
0 0 0 0 0 0 0 0 0 0 0 1 5 9 13 19 22 21 22 26 25 22 22 25 27 27 28 30 32 33 30 28 25 21 17 15 13 10 9 8 7 5 5 6
0 0 0 0 0 0 0 0 0 1 1 3 5 8 12 18 22 22 23 26 26 25 27 30 30 28 28 31 36 38 35 31 27 23 21 20 18 13 10 10 8 7 6 6
0 0 0 0 0 0 0 0 0 1 2 2 3 6 10 15 20 21 19 20 22 26 29 30 30 27 27 31 36 38 36 32 30 27 26 26 23 19 15 13 12 10 8 7
0 0 0 0 0 0 0 0 0 1 1 1 1 4 7 11 15 17 15 14 17 23 27 27 25 24 25 28 33 34 32 30 31 30 28 26 23 19 16 15 13 12 10 8
0 0 0 0 0 0 0 0 0 0 0 0 0 2 5 7 10 13 13 11 14 20 23 23 20 20 23 26 29 29 27 26 28 29 27 23 20 17 15 12 11 11 10 9
0 0 0 0 0 0 0 0 0 0 0 0 0 1 2 5 9 13 12 12 14 18 20 20 17 18 21 24 26 25 23 22 22 24 23 20 17 16 14 12 10 10 10 10
0 0 0 0 0 0 0 0 0 0 0 0 0 1 3 8 12 15 14 14 16 18 19 19 17 17 19 21 22 21 19 18 18 18 19 18 17 16 15 15 13 11 9 9
0 0 0 0 0 0 0 0 0 0 0 0 0 2 6 12 16 17 16 14 15 17 18 17 16 16 17 18 18 18 18 17 16 16 17 16 16 16 16 15 14 12 9 8
0 0 0 0 0 0 0 0 0 0 0 0 1 3 8 13 17 18 15 12 12 14 15 15 14 14 14 13 14 15 17 18 17 17 16 16 16 16 15 12 11 11 9 8
0 0 0 0 0 0 0 0 0 0 0 0 1 4 8 14 17 16 12 10 8 9 11 11 10 11 11 10 10 11 15 18 18 17 16 15 16 16 15 12 11 11 10 9
0 0 0 0 0 0 0 0 0 0 0 0 1 4 8 14 17 14 11 8 4 4 7 8 8 8 9 9 10 11 13 16 16 15 15 15 16 16 15 14 13 12 11 11
0 0 0 0 0 0 0 0 0 0 0 0 1 3 6 10 12 10 7 5 2 2 4 5 6 6 6 8 10 11 12 12 12 11 12 14 14 13 12 12 12 12 12 12
0 0 0 0 0 0 0 0 0 0 0 0 1 3 4 7 8 6 4 2 1 2 3 4 3 2 2 4 7 9 10 9 9 8 9 10 10 9 8 8 8 9 10 10
0 0 0 0 0 0 0 0 0 0 1 2 3 2 2 5 5 3 2 1 1 2 2 2 1 0 0 2 4 6 6 6 6 6 6 6 6 5 4 4 4 5 7 7
0 0 0 0 0 0 0 0 0 1 2 4 4 2 2 4 4 3 2 2 2 2 1 1 0 0 0 1 2 3 3 4 5 5 5 4 4 4 3 2 2 3 4 4
0 0 0 0 0 0 0 0 1 1 2 3 3 2 3 4 3 2 2 2 2 1 0 0 0 0 0 1 1 1 1 2 3 4 4 4 5 5 4 3 2 1 1 2
0 0 0 0 0 0 0 0 1 1 1 1 2 2 2 2 1 1 1 1 1 0 0 0 0 0 0 0 0 0 0 0 1 2 4 5 6 6 5 5 4 2 1 1
0 0 0 0 0 0 0 0 1 1 1 1 1 1 1 0 0 0 0 0 0 0 0 0 0 0 0 0 0 0 0 0 0 0 2 5 6 6 6 6 5 3 3 3
0 0 0 0 0 0 0 0 0 0 1 1 1 1 0 0 0 0 0 0 0 0 0 0 0 0 0 0 0 0 0 0 0 0 1 3 4 5 6 6 6 5 5 6
0 0 0 0 0 0 0 1 0 0 0 0 0 0 0 0 0 0 0 0 0 0 0 0 0 0 0 0 0 0 0 0 0 0 0 1 2 4 5 6 6 6 6 6
0 0 0 0 0 0 0 0 0 0 0 0 0 0 0 0 0 0 0 0 0 0 0 0 0 0 0 0 0 0 0 0 0 0 0 0 1 2 4 5 6 6 5 4
0 0 0 0 0 0 0 0 0 0 0 0 0 0 0 0 0 0 0 0 0 0 0 0 0 0 0 1 0 0 0 0 0 0 0 0 0 1 2 4 6 6 5 4
0 0 0 0 0 0 0 0 0 0 0 0 0 0 0 0 0 0 0 0 0 0 0 0 0 0 0 0 0 0 0 0 0 0 0 0 0 0 1 3 5 6 6 6
0 0 0 0 0 0 0 0 0 0 0 0 0 0 0 0 0 0 0 0 0 0 0 1 0 0 0 0 0 1 1 0 0 0 0 0 0 0 0 1 3 4 4 5
0 0 0 0 0 0 0 0 0 0 0 0 0 0 0 0 0 0 0 0 0 0 0 1 0 0 0 0 0 1 1 1 0 0 0 0 0 0 0 0 1 1 2 2
Wind_Speed
1 2 4 8 8 7 4 4 6 7 4 3 5 4 6 10 9 9 8 8 8 8 7 8 7 7 7 6 6 6 5 4 4 3 3 2 2 1 1 1 2 3 2 2
3 5 11 8 6 4 4 5 7 6 2 3 5 3 3 8 10 11 11 9 9 7 5 7 7 6 6 6 6 6 6 5 4 3 3 2 2 2 2 1 1 2 2 2
7 9 7 5 6 5 6 5 5 4 3 3 4 2 0 2 4 6 7 9 9 11 10 9 8 6 6 5 6 6 5 5 4 4 3 2 2 2 1 1 1 1 2 2
6 9 6 5 6 5 6 6 4 3 2 2 3 2 3 2 3 4 6 7 8 8 9 8 8 6 5 5 5 5 5 4 4 4 4 4 3 2 2 2 1 1 1 2
6 4 4 6 8 5 7 5 3 2 3 0 1 4 4 0 3 5 6 8 8 9 9 8 7 7 5 5 5 4 4 3 3 3 4 4 3 2 1 1 2 2 1 1
8 5 4 7 7 5 4 2 4 5 5 0 4 4 3 3 6 7 6 7 7 8 8 7 6 5 5 4 5 4 5 3 3 4 3 4 3 2 2 2 1 1 1 1
6 7 5 2 2 3 3 5 4 5 4 4 2 4 5 4 6 9 10 8 7 7 7 6 6 5 5 5 5 4 5 3 2 3 3 3 3 3 3 2 2 2 1 1
2 7 5 2 4 4 3 9 8 5 4 4 2 2 3 2 4 7 9 9 8 7 6 6 6 6 5 5 5 4 4 3 2 2 2 2 2 2 2 2 2 2 2 2
4 6 5 3 3 6 3 2 7 7 2 1 1 0 2 3 6 8 8 8 7 6 6 6 5 5 5 5 4 4 4 2 2 2 2 1 1 2 1 1 1 1 1 1
5 3 5 4 3 2 5 5 6 5 3 1 0 1 3 3 5 6 6 7 6 6 6 5 5 5 5 4 3 3 3 3 2 2 2 2 1 1 1 2 1 1 1 1
4 2 5 4 1 2 2 3 5 4 5 6 2 3 3 7 7 7 6 6 7 6 6 5 4 4 4 4 3 3 2 2 1 1 1 1 1 1 1 1 2 2 1 1
2 5 1 5 5 3 4 4 6 5 2 4 4 4 2 5 6 7 7 6 6 6 5 5 5 4 4 4 3 2 2 2 2 1 1 1 1 1 1 1 1 1 1 2
4 6 3 7 8 6 3 1 4 6 5 4 4 3 2 5 6 6 7 7 6 6 6 5 4 4 4 3 2 2 2 1 1 1 2 1 1 1 1 1 1 1 1 1
6 5 6 5 5 2 2 2 1 5 4 3 5 5 2 4 6 6 6 7 6 6 5 4 4 3 3 2 2 1 1 1 2 2 2 1 1 1 1 1 1 1 1 1
6 4 2 2 2 1 2 3 0 3 6 6 6 6 6 5 7 7 7 7 6 6 5 4 4 3 2 2 1 1 0 1 2 2 1 1 1 1 1 0 0 1 1 1
4 3 2 1 0 2 4 5 1 2 4 7 8 3 3 4 6 6 7 7 6 5 4 4 3 3 2 2 2 1 1 1 1 2 1 1 1 0 0 1 1 1 1 1
2 3 3 1 2 3 4 4 1 3 3 6 5 4 5 7 7 6 6 6 6 5 5 4 3 2 2 1 1 2 2 1 1 1 1 1 1 1 1 1 1 1 2 1
5 4 4 1 3 1 5 2 4 6 5 3 6 6 7 8 6 4 4 6 6 5 4 3 2 1 1 1 0 1 1 1 1 0 0 1 1 1 1 1 1 2 2 2
5 6 4 3 2 2 3 2 1 5 3 2 7 7 7 7 6 4 2 5 5 4 4 3 2 2 1 1 1 2 2 1 1 0 1 1 1 1 2 2 3 3 2 2
4 5 5 4 3 3 5 4 1 8 2 1 6 7 6 6 4 2 1 3 5 4 3 3 2 2 1 0 2 3 1 1 1 2 2 2 1 1 2 3 3 2 2 3
3 3 3 3 2 4 5 4 2 3 6 3 5 7 6 4 5 5 3 3 3 3 3 3 3 2 1 1 2 2 0 1 2 2 2 2 2 2 2 2 2 2 2 2
3 2 1 3 2 5 5 2 3 5 4 4 5 5 5 4 4 5 5 4 3 3 2 3 2 1 1 1 2 1 2 3 2 1 2 2 3 2 2 2 2 2 2 2
2 5 5 5 6 5 1 4 4 6 6 4 4 5 7 6 5 5 4 4 3 3 2 2 3 2 0 0 1 1 3 2 2 2 2 3 3 3 2 2 2 2 1 1
2 2 3 2 1 1 2 3 3 5 5 5 6 6 7 6 5 4 4 3 3 2 2 2 2 2 1 1 1 2 2 1 1 2 3 2 2 3 2 1 1 1 1 2
2 2 2 1 1 2 2 1 2 4 5 5 5 5 6 7 5 5 4 3 2 2 2 2 3 3 3 2 2 2 1 1 1 2 3 3 2 2 2 2 2 2 3 3
1 3 4 4 4 3 3 2 3 5 4 5 5 4 3 5 4 4 3 3 3 2 2 2 2 2 2 2 2 2 2 1 1 2 3 3 2 2 2 2 3 4 4 5
Wind_Direction
268 89 232 232 214 211 227 252 263 263 263 126 152 159 157 154 150 153 158 159 156 155 158 147 145 144 136 136 137 145 143 145 138 131 138 137 147 139 114 124 132 127 122 123
3 256 238 236 243 236 240 259 272 286 276 136 151 162 162 159 167 168 162 158 153 141 132 137 135 135 142 146 148 150 153 155 153 152 156 156 147 145 141 144 134 135 124 126
210 244 247 236 246 241 250 227 236 244 332 44 108 33 65 183 135 142 148 154 156 152 150 149 147 149 147 152 156 155 157 153 151 143 125 106 83 70 79 103 152 154 143 137
239 251 256 253 246 216 254 242 209 192 112 270 130 155 286 184 118 130 149 157 155 147 143 145 145 144 157 170 153 141 141 143 147 140 137 143 154 169 189 184 171 161 160 151
247 241 228 239 243 213 227 235 208 177 157 36 15 122 271 279 164 181 170 160 152 147 142 138 142 152 157 152 137 134 123 117 121 135 146 146 153 179 176 147 145 156 187 184
249 254 220 227 243 227 222 23 23 49 74 336 242 145 245 225 198 185 171 154 151 139 133 129 131 131 120 114 112 116 111 102 104 106 110 133 147 154 133 134 155 174 203 220
298 292 267 227 300 322 81 83 30 1 13 252 232 128 224 225 188 163 154 150 146 131 127 123 118 116 121 121 121 117 123 117 116 122 133 149 156 151 148 158 172 179 199 226
240 286 270 223 188 199 179 136 154 192 219 269 351 156 241 207 129 123 127 133 131 127 131 134 137 136 135 135 130 127 129 131 137 142 152 146 142 145 160 168 168 185 205 221
194 260 282 257 198 152 143 159 166 143 167 110 309 86 5 69 94 105 116 125 134 139 138 137 134 135 133 135 136 143 149 152 164 164 154 144 140 135 147 154 158 187 217 217
174 258 298 304 46 34 149 143 86 102 141 189 313 204 210 181 144 129 130 134 146 144 134 133 131 130 130 138 135 133 139 152 160 158 171 169 176 159 164 155 173 197 219 220
136 146 315 3 76 192 60 77 104 117 148 149 180 262 224 181 164 151 145 141 136 131 139 142 134 128 126 123 127 129 132 125 136 167 181 173 179 173 168 182 198 200 207 205
126 120 270 279 274 193 136 157 141 143 203 145 149 248 314 155 146 139 135 125 119 118 120 121 116 111 111 115 124 137 151 154 180 174 149 161 169 163 167 213 221 201 201 211
110 99 48 343 347 4 46 67 133 132 121 133 144 228 27 115 118 123 125 120 112 110 112 108 111 115 117 118 120 129 151 172 172 128 114 106 110 180 219 244 247 220 201 216
111 105 149 188 229 275 315 336 86 115 131 165 179 169 170 137 138 129 123 123 120 106 114 124 119 111 108 106 106 106 130 144 124 114 117 140 186 192 206 228 249 242 213 207
95 117 158 195 234 304 317 311 284 143 167 164 177 165 190 182 156 143 137 131 119 112 111 112 113 111 112 108 96 112 136 136 126 110 118 188 205 193 163 155 249 269 261 248
69 124 94 7 316 29 6 348 5 112 121 131 127 150 196 144 121 119 128 126 122 121 122 123 121 117 138 160 152 154 148 157 126 126 186 243 244 243 240 220 214 275 281 282
75 117 106 264 305 34 351 329 44 81 94 137 155 185 148 121 123 135 136 134 137 136 130 130 135 144 152 182 163 158 159 143 117 141 248 257 223 233 254 262 266 262 262 269
135 113 126 133 41 206 247 282 100 91 62 93 122 137 138 135 133 125 131 136 137 134 128 124 120 106 122 119 106 159 120 98 93 89 292 274 258 258 259 266 254 256 255 256
139 132 117 115 133 260 287 316 162 121 51 63 123 126 120 118 87 47 68 130 140 141 139 140 140 138 127 119 96 80 59 54 48 347 288 259 231 264 277 274 265 253 250 257
75 99 113 122 140 217 253 291 145 99 63 323 130 135 136 112 110 229 213 124 122 124 126 121 108 85 97 116 89 82 54 22 330 292 276 272 259 247 258 263 262 260 244 240
43 51 103 135 166 254 267 289 72 129 207 198 145 141 137 145 178 184 154 129 127 129 127 118 107 98 132 143 113 111 83 280 274 292 299 296 283 264 261 265 271 271 256 257
157 134 148 130 158 248 289 39 134 191 170 143 136 139 132 134 129 131 132 133 132 126 124 122 114 102 75 106 117 142 257 263 279 305 311 305 296 285 286 271 276 272 253 253
152 177 172 173 201 229 224 142 162 143 132 141 136 135 129 128 135 138 137 141 146 147 154 150 141 136 131 128 142 195 266 277 291 316 305 298 294 290 291 273 270 282 278 256
328 72 99 91 253 188 112 114 123 134 141 148 143 139 134 139 146 142 146 151 154 165 175 166 147 153 232 258 229 224 256 275 300 298 294 289 289 291 295 284 261 252 258 258
268 61 81 115 239 58 35 97 129 129 125 124 126 133 139 139 147 157 163 176 184 192 194 176 175 191 223 246 263 270 265 270 296 290 282 282 275 268 269 271 258 247 243 230
245 164 164 209 209 171 215 203 126 122 128 133 132 126 130 140 158 162 172 185 185 192 195 184 189 205 231 244 259 270 266 240 274 288 282 273 274 272 268 272 295 286 269 274